[[{"header":{"parameterUnit":"m.s-1","parameterCategory":1,"la1":30.2991,"la2":30.254,"lo1":-89.0895,"lo2":-89.0444,"dy":0.0017,"dx":0.0017,"nx":28,"ny":28,"refTime":"2023-10-19T03:00:00:Z","depth":0,"parameterNumber":2,"parameterNumberName":"U-component_of_WINDS"},"data":[0,0,0,0,0,0,0,0,0,0,0,0,0,0,0,0,0,0,0,0,0,0,0,0,0,0,0,0,0,0,0,0,0,0,0,0,0,0,0,0,0,0,0,0,0,0,0,0,0,0,0,0,0,0,0,0,0,0,0.9679,0.968,0,0.9733,0.9734,0.9735,0.9759,0.9759,0.9759,0.9759,0.9816,0.9817,0.9819,0,0,0,0,0,0,0,0,0,0,0,0,0,0.9598,0.96,0.9679,0.968,0.968,0.9733,0.9734,0.9735,0.9759,0.9759,0.9759,0.9759,0.9815,0.9817,0.9819,0,0,0,0,0,0,0,0,0,0,0,0,0,0.9641,0.96,0.9679,0.9699,0.9701,0.9733,0.9734,0.9735,0.9759,0.9759,0.9759,0.9759,0.9815,0.9817,0.9819,0.9836,0,0,0.9827,0.9828,0,0,0,0,0,0,0,0,0.9639,0.9644,0.9695,0.9698,0.97,0.974,0.9727,0.9769,0.9759,0.9737,0.9759,0.9759,0.9791,0.9795,0.9805,0.9838,0.9841,0.9827,0.9828,0.9829,0.983,0,0,0,0,0,0,0,0.9636,0.9642,0.9701,0.9696,0.9699,0.9706,0.9712,0.9735,0.9764,0.9739,0.9741,0.9747,0.9792,0.9803,0.9807,0.9842,0.9827,0.9829,0.983,0.9831,0.9893,0.9893,0,0,0,0,0,0,0.9629,0.9639,0.9699,0.9702,0.9669,0.9707,0.9714,0.9727,0.9764,0.9769,0.9747,0.9748,0.9799,0.9804,0.9809,0.9832,0.9829,0.9831,0.9833,0.9893,0.9893,0.9893,0,0,0,0,0,0,0.9627,0.9634,0.9697,0.9671,0.968,0.9709,0.9723,0.9728,0.9739,0.977,0.9775,0.9753,0.9799,0.9806,0.9829,0.9834,0.9832,0.9835,0.9892,0.9893,0.9893,0.9877,0,0,0,0,0,0,0.9625,0.9633,0.9639,0.9671,0.9681,0.9715,0.9723,0.9729,0.9743,0.9745,0.9777,0.9782,0.98,0.9826,0.9832,0.9837,0.9836,0.9892,0.9892,0.9893,0.9877,0.9876,0.9876,0,0,0,0,0,0.9622,0.9632,0.964,0.9647,0.9689,0.9715,0.9721,0.9741,0.9743,0.975,0.977,0.9781,0.9832,0.9828,0.9835,0.9841,0.9892,0.9892,0.9893,0.9877,0.9877,0.9876,0,0,0,0,0,0,0.96,0.9637,0.9645,0.9666,0.9688,0.972,0.9728,0.974,0.9761,0.9762,0.9786,0.9793,0.9815,0.983,0.9824,0.986,0.9863,0.9865,0.9849,0.9849,0.9848,0.9844,0.9838,0,0,0,0,0,0.9598,0.9616,0.9647,0.9663,0.9673,0.9699,0.9711,0.9725,0.9748,0.9757,0.9779,0.9801,0.9823,0.9837,0.9858,0.9879,0.9887,0.9887,0.9887,0.9886,0.9888,0.9902,0.9903,0.9895,0.9895,0.9895,0,0,0.9593,0.9615,0.9625,0.9659,0.9677,0.9696,0.9706,0.9725,0.974,0.976,0.9784,0.9801,0.9828,0.9851,0.9862,0.9864,0.9892,0.9887,0.9886,0.9888,0.9902,0.9903,0.9904,0.9895,0.9895,0.9895,0,0,0.9594,0.9613,0.9628,0.9647,0.9674,0.9691,0.9695,0.9726,0.9738,0.9762,0.9778,0.9796,0.9832,0.9851,0.9866,0.9876,0.9887,0.9882,0.988,0.9893,0.9894,0.9895,0.99,0.9901,0.9884,0.9884,0.9884,0,0.9585,0.9614,0.9635,0.9654,0.9669,0.9688,0.9705,0.9722,0.9755,0.9765,0.9767,0.9814,0.9833,0.9862,0.9865,0.9875,0.9881,0.9879,0.9892,0.9893,0.9894,0.9899,0.9901,0.9883,0.9883,0.9883,0.9883,0,0.9602,0.9622,0.9631,0.9663,0.9679,0.9697,0.9721,0.9735,0.9748,0.9765,0.979,0.9815,0.9842,0.9849,0.9862,0.988,0.9881,0.9887,0.9891,0.9894,0.9899,0.9901,0.9882,0.9882,0.9882,0.9882,0,0,0.959,0.9634,0.9638,0.9653,0.9686,0.9702,0.9721,0.9748,0.976,0.9782,0.98,0.983,0.9837,0.9853,0.9868,0.988,0.9888,0.9885,0.9886,0.9886,0.9911,0.9907,0.9908,0.9896,0.9896,0.9896,0.9909,0,0.9597,0.9632,0.9652,0.9679,0.9698,0.9718,0.9735,0.9757,0.9774,0.9794,0.9813,0.9835,0.9841,0.9851,0.9863,0.9884,0.9894,0.9884,0.9913,0.9914,0.9906,0.9911,0.9906,0.9917,0.9911,0.9912,0.9912,0,0.9609,0.9631,0.966,0.9692,0.9701,0.9716,0.9743,0.9761,0.9787,0.9799,0.9818,0.9833,0.9855,0.9857,0.9888,0.9881,0.9895,0.9907,0.9908,0.9912,0.9913,0.9916,0.9921,0.9923,0.9915,0.9915,0.9915,0,0.9599,0.9636,0.9659,0.9671,0.9709,0.9719,0.9735,0.9761,0.9777,0.98,0.9811,0.9837,0.9851,0.9871,0.9893,0.9893,0.9923,0.9927,0.9935,0.9934,0.994,0.994,0.9948,0.9948,0.9948,0.9948,0.9947,0,0.9604,0.9621,0.9655,0.9669,0.969,0.9713,0.9733,0.9751,0.9774,0.9792,0.9811,0.9828,0.9856,0.9876,0.9894,0.9918,0.9924,0.9935,0.994,0.9934,0.9932,0.9943,0.9943,0.9948,0.9948,0.9948,0.9948,0,0.9596,0.962,0.9646,0.968,0.9689,0.9702,0.9731,0.9746,0.9765,0.9788,0.9795,0.9824,0.9849,0.9873,0.9907,0.9919,0.9944,0.9949,0.9935,0.9938,0.9945,0.9944,0.9961,0.9965,0.996,0.996,0.996,0,0.9599,0.9613,0.9648,0.9662,0.9678,0.9699,0.9715,0.9739,0.9755,0.9787,0.9799,0.9825,0.9848,0.9888,0.9913,0.994,0.9946,0.9951,0.995,0.9945,0.9948,0.9947,0.9949,0.995,0.995,0.995,0.995,0,0.9601,0.9612,0.9634,0.9661,0.9679,0.9702,0.9724,0.9735,0.9763,0.9781,0.9807,0.9825,0.986,0.9887,0.9917,0.9934,0.9947,0.995,0.9953,0.9948,0.9939,0.9945,0.9935,0.9949,0.9949,0.995,0.995,0.995,0.9599,0.9613,0.964,0.9665,0.9685,0.9706,0.9722,0.9743,0.9765,0.9796,0.9809,0.9836,0.9863,0.9904,0.9922,0.9944,0.9947,0.9951,0.9953,0.9954,0.9953,0.9935,0.9949,0.9949,0.9949,0.995,0.995,0,0.9603,0.9622,0.9644,0.9676,0.9695,0.9706,0.9732,0.9748,0.9772,0.9796,0.9819,0.985,0.9876,0.9903,0.9932,0.9944,0.9951,0.9951,0.9951,0.9955,0.9948,0.9943,0.9945,0.9945,0.9945,0.9945,0.9945,0.9945,0.9607,0.9631,0.9646,0.9681,0.97,0.9727,0.9741,0.9761,0.9781,0.9815,0.9837,0.9855,0.9881,0.9911,0.9937,0.9944,0.9954,0.9952,0.9961,0.9955,0.9955,0.9955,0.995,0.9954,0.9954,0.9966,0.9966,0.9966]},{"header":{"parameterUnit":"m.s-1","parameterCategory":1,"la1":30.2991,"la2":30.254,"lo1":-89.0895,"lo2":-89.0444,"dy":0.0017,"dx":0.0017,"nx":28,"ny":28,"refTime":"2023-10-19T03:00:00:Z","depth":0,"parameterNumber":3,"parameterNumberName":"V-component_of_WINDS"},"data":[0,0,0,0,0,0,0,0,0,0,0,0,0,0,0,0,0,0,0,0,0,0,0,0,0,0,0,0,0,0,0,0,0,0,0,0,0,0,0,0,0,0,0,0,0,0,0,0,0,0,0,0,0,0,0,0,0,0,1.3081,1.3081,0,1.3114,1.3114,1.3115,1.3141,1.3141,1.3142,1.3142,1.3175,1.3175,1.3176,0,0,0,0,0,0,0,0,0,0,0,0,0,1.3038,1.3039,1.3081,1.3081,1.3082,1.3114,1.3114,1.3115,1.3141,1.3141,1.3142,1.3142,1.3174,1.3175,1.3176,0,0,0,0,0,0,0,0,0,0,0,0,0,1.3063,1.3039,1.3081,1.3099,1.3101,1.3114,1.3114,1.3115,1.3141,1.3141,1.3142,1.3142,1.3174,1.3175,1.3176,1.3174,0,0,1.3179,1.3179,0,0,0,0,0,0,0,0,1.3061,1.3064,1.3096,1.3098,1.31,1.3124,1.3111,1.3135,1.3141,1.3126,1.3142,1.3142,1.3157,1.316,1.3165,1.3175,1.3177,1.3179,1.318,1.318,1.318,0,0,0,0,0,0,0,1.306,1.3063,1.3094,1.3096,1.3099,1.3104,1.3108,1.3116,1.3139,1.3127,1.3129,1.3133,1.3159,1.3164,1.3166,1.3177,1.3179,1.318,1.318,1.3181,1.3184,1.3184,0,0,0,0,0,0,1.3055,1.3061,1.3093,1.3095,1.3081,1.3105,1.3109,1.3116,1.3139,1.3143,1.3132,1.3134,1.3162,1.3165,1.3167,1.3164,1.318,1.3181,1.3181,1.3184,1.3184,1.3183,0,0,0,0,0,0,1.3054,1.3058,1.3092,1.3079,1.3083,1.3105,1.3112,1.3116,1.3122,1.3143,1.3147,1.3134,1.3163,1.3166,1.3171,1.3166,1.3181,1.3182,1.3185,1.3184,1.3184,1.3159,0,0,0,0,0,0,1.3053,1.3057,1.3058,1.3079,1.3084,1.3096,1.3112,1.3116,1.3123,1.3126,1.3145,1.3149,1.3163,1.317,1.3172,1.3167,1.3183,1.3186,1.3185,1.3184,1.3161,1.3158,1.3155,0,0,0,0,0,1.3051,1.305,1.3058,1.3061,1.3085,1.3096,1.3099,1.3116,1.3123,1.3122,1.3135,1.3148,1.3166,1.317,1.3173,1.3168,1.3186,1.3185,1.3184,1.3162,1.3158,1.3155,0,0,0,0,0,0,1.3028,1.3053,1.3062,1.3067,1.3079,1.31,1.3101,1.3112,1.3122,1.3123,1.3143,1.3148,1.315,1.316,1.3164,1.3166,1.3177,1.3177,1.316,1.3157,1.3154,1.3152,1.3184,0,0,0,0,0,1.3024,1.3031,1.3052,1.3055,1.306,1.3079,1.3085,1.3096,1.3109,1.3114,1.3128,1.314,1.3148,1.3153,1.3161,1.3162,1.3166,1.316,1.3157,1.3155,1.3154,1.3153,1.315,1.318,1.318,1.318,0,0,1.3015,1.3029,1.3033,1.305,1.3061,1.3067,1.3083,1.309,1.3094,1.3115,1.3121,1.3131,1.3145,1.3148,1.3149,1.3156,1.3147,1.3154,1.3152,1.3152,1.3152,1.3149,1.3146,1.3179,1.3179,1.3179,0,0,1.3001,1.3013,1.3016,1.3026,1.3041,1.3053,1.3053,1.3072,1.308,1.3085,1.3101,1.3106,1.312,1.3128,1.3135,1.3121,1.3132,1.3123,1.311,1.3108,1.3106,1.3104,1.3097,1.3095,1.3122,1.3122,1.3122,0,1.2988,1.2999,1.3016,1.302,1.3027,1.3045,1.3047,1.3056,1.3073,1.3077,1.3083,1.3099,1.3111,1.3114,1.311,1.3115,1.3115,1.3121,1.3105,1.3103,1.3101,1.3095,1.3093,1.3121,1.3121,1.3121,1.3121,0,1.298,1.2987,1.2987,1.3003,1.3009,1.3012,1.3029,1.3033,1.3043,1.3054,1.3058,1.3072,1.3082,1.3084,1.3095,1.3088,1.3091,1.3101,1.3113,1.3097,1.3092,1.309,1.3119,1.312,1.312,1.312,0,0,1.2956,1.2978,1.2978,1.2984,1.3001,1.3006,1.3009,1.3019,1.3022,1.3032,1.3034,1.3044,1.3052,1.3059,1.307,1.3069,1.3055,1.3079,1.3079,1.3073,1.3047,1.3039,1.3037,1.3063,1.3062,1.3062,1.3045,0,1.2944,1.2951,1.2965,1.2967,1.2972,1.2989,1.2991,1.3,1.301,1.3015,1.3025,1.3031,1.3043,1.3047,1.3046,1.3057,1.305,1.3058,1.3064,1.3064,1.3059,1.3034,1.3027,1.3011,1.3044,1.3043,1.3043,0,1.2933,1.2941,1.2943,1.2957,1.296,1.2962,1.2971,1.2976,1.2986,1.2993,1.2999,1.3011,1.3013,1.3024,1.3027,1.3032,1.3034,1.304,1.3039,1.3041,1.3052,1.3034,1.3006,1.3003,1.304,1.3041,1.3041,0,1.2913,1.2925,1.2927,1.2932,1.2949,1.2949,1.2956,1.2967,1.2971,1.2979,1.2981,1.2989,1.2993,1.2998,1.301,1.3017,1.3011,1.3023,1.3016,1.3015,1.3014,1.3014,1.2985,1.3016,1.3016,1.3016,1.3016,0,1.2899,1.2899,1.2918,1.2919,1.2919,1.2935,1.2934,1.2942,1.2951,1.2953,1.2968,1.2969,1.2986,1.299,1.2999,1.2999,1.3001,1.3006,1.3008,1.3004,1.3003,1.3006,1.3007,1.3016,1.3016,1.3016,1.3016,0,1.2877,1.289,1.2893,1.2908,1.2911,1.2911,1.2923,1.2924,1.2933,1.2935,1.2937,1.2951,1.2955,1.2968,1.2976,1.2983,1.2979,1.2984,1.2975,1.2977,1.2968,1.2968,1.294,1.2936,1.297,1.297,1.2969,0,1.2867,1.2868,1.2882,1.2884,1.289,1.2894,1.2898,1.2912,1.2915,1.2925,1.2924,1.2929,1.2934,1.294,1.295,1.2956,1.2961,1.295,1.2962,1.2957,1.2959,1.2959,1.2958,1.2948,1.2948,1.2947,1.2947,0,1.2848,1.2854,1.2859,1.2865,1.2869,1.2874,1.2881,1.2882,1.2897,1.29,1.2904,1.2907,1.2914,1.2918,1.2924,1.293,1.2941,1.2943,1.2941,1.2937,1.2931,1.2933,1.2968,1.2944,1.2944,1.2944,1.2944,1.2945,1.2832,1.2832,1.2841,1.2845,1.2851,1.2856,1.2857,1.2865,1.2869,1.2875,1.2883,1.2885,1.2893,1.2903,1.2907,1.2909,1.2915,1.2913,1.2912,1.2911,1.2908,1.2931,1.291,1.291,1.291,1.291,1.2911,0,1.2812,1.2818,1.2822,1.283,1.2832,1.2841,1.2848,1.2849,1.2851,1.2857,1.2861,1.2864,1.2867,1.2877,1.2881,1.288,1.2885,1.2881,1.2881,1.2882,1.2904,1.2904,1.2877,1.2877,1.2877,1.2877,1.2877,1.2877,1.2803,1.2803,1.2809,1.2811,1.2817,1.2819,1.2822,1.2825,1.283,1.2833,1.2835,1.2842,1.2849,1.2853,1.2855,1.2858,1.2859,1.2853,1.2857,1.2877,1.2881,1.2884,1.2884,1.2853,1.2853,1.2835,1.2834,1.2834]}]]